,,,PA_Meas_PMT16A,,PR_Meas_QMR101_102,,RH_Meas_QMH101,,SR_Meas_QMS101,,TA_Meas_QMH101,,GenWind,,GenWind,
date,time,status,PA,status,PR,status,RH,status,SR,status,TA,status,DirAvg,status,SpdAvg,
2009-01-21, 00:00:04,VALID,999.884,VALID,0,VALID,93.3408,VALID,0,VALID,22.825,VALID,288,VALID,0,
2009-01-21, 00:01:04,VALID,999.852,VALID,0,VALID,93.3866,VALID,0,VALID,22.8055,VALID,288,VALID,0,
2009-01-21, 00:02:04,VALID,999.881,VALID,0,VALID,93.4628,VALID,0,VALID,22.786,VALID,288,VALID,0,
2009-01-21, 00:03:04,VALID,999.879,VALID,0,VALID,93.4171,VALID,0,VALID,22.7664,VALID,303,VALID,0.430078,
2009-01-21, 00:04:04,VALID,999.871,VALID,0,VALID,93.4934,VALID,0,VALID,22.7469,VALID,336,VALID,0.672266,
2009-01-21, 00:05:04,VALID,999.865,VALID,0,VALID,93.4552,VALID,0,VALID,22.7274,VALID,336,VALID,0.497266,
2009-01-21, 00:06:04,VALID,999.873,VALID,0,VALID,93.4018,VALID,0,VALID,22.7079,VALID,336,VALID,0.326562,
2009-01-21, 00:07:04,VALID,999.876,VALID,0,VALID,93.3331,VALID,0,VALID,22.7079,VALID,336,VALID,0.270703,
2009-01-21, 00:08:04,VALID,999.87,VALID,0,VALID,93.2797,VALID,0,VALID,22.6884,VALID,336,VALID,0.423828,
2009-01-21, 00:09:04,VALID,999.858,VALID,0,VALID,93.0661,VALID,0,VALID,22.6689,VALID,336,VALID,0.422266,
2009-01-21, 00:10:04,VALID,999.822,VALID,0,VALID,93.2187,VALID,0,VALID,22.7079,VALID,336,VALID,0.366406,
2009-01-21, 00:11:04,VALID,999.806,VALID,0,VALID,93.4552,VALID,0,VALID,22.7664,VALID,336,VALID,0.310156,
2009-01-21, 00:12:04,VALID,999.749,VALID,0,VALID,93.501,VALID,0,VALID,22.7664,VALID,336,VALID,0.414063,
2009-01-21, 00:13:04,VALID,999.751,VALID,0,VALID,93.4628,VALID,0,VALID,22.7664,VALID,34,VALID,0.829297,
2009-01-21, 00:14:04,VALID,999.73,VALID,0,VALID,93.6383,VALID,0,VALID,22.786,VALID,47,VALID,0.958984,
2009-01-21, 00:15:04,VALID,999.706,VALID,0,VALID,93.6612,VALID,0,VALID,22.8055,VALID,47,VALID,0.536719,
2009-01-21, 00:16:04,VALID,999.702,VALID,0,VALID,93.6383,VALID,0,VALID,22.8055,VALID,47,VALID,0.303125,
2009-01-21, 00:17:04,VALID,999.708,VALID,0,VALID,93.6002,VALID,0,VALID,22.8055,VALID,47,VALID,0.251172,
2009-01-21, 00:18:04,VALID,999.692,VALID,0,VALID,93.6841,VALID,0,VALID,22.786,VALID,46,VALID,0.755469,
2009-01-21, 00:19:04,VALID,999.705,VALID,0,VALID,93.4934,VALID,0,VALID,22.786,VALID,43,VALID,0.832031,
2009-01-21, 00:20:04,VALID,999.677,VALID,0,VALID,93.4018,VALID,0,VALID,22.8072,VALID,43,VALID,0.779297,
2009-01-21, 00:21:04,VALID,999.694,VALID,0,VALID,93.5163,VALID,0,VALID,22.7877,VALID,43,VALID,0.592578,
2009-01-21, 00:22:04,VALID,999.67,VALID,0,VALID,93.4781,VALID,0,VALID,22.8267,VALID,43,VALID,0.581641,
2009-01-21, 00:23:04,VALID,999.663,VALID,0,VALID,93.4934,VALID,0,VALID,22.8055,VALID,43,VALID,0.819531,
2009-01-21, 00:24:04,VALID,999.697,VALID,0,VALID,93.3713,VALID,0,VALID,22.8267,VALID,47,VALID,1.05352,
2009-01-21, 00:25:04,VALID,999.66,VALID,0,VALID,93.3713,VALID,0,VALID,22.7664,VALID,50,VALID,0.899609,
2009-01-21, 00:26:04,VALID,999.658,VALID,0,VALID,93.6612,VALID,0,VALID,22.786,VALID,58,VALID,0.726563,
2009-01-21, 00:27:04,VALID,999.644,VALID,0,VALID,93.9435,VALID,0,VALID,22.8055,VALID,58,VALID,0.630078,
2009-01-21, 00:28:04,VALID,999.642,VALID,0,VALID,94.1648,VALID,0,VALID,22.8072,VALID,71,VALID,1.03633,
2009-01-21, 00:29:04,VALID,999.61,VALID,0,VALID,94.2029,VALID,0,VALID,22.786,VALID,71,VALID,0.957812,
2009-01-21, 00:30:04,VALID,999.577,VALID,0,VALID,94.18,VALID,0,VALID,22.8072,VALID,63,VALID,1.25117,
2009-01-21, 00:31:04,VALID,999.561,VALID,0,VALID,94.1571,VALID,0,VALID,22.7664,VALID,54,VALID,0.992188,
2009-01-21, 00:32:04,VALID,999.544,VALID,0,VALID,94.0656,VALID,0,VALID,22.7274,VALID,59,VALID,1.03555,
2009-01-21, 00:33:04,VALID,999.563,VALID,0,VALID,94.0732,VALID,0,VALID,22.7487,VALID,62,VALID,0.902344,
2009-01-21, 00:34:04,VALID,999.536,VALID,0,VALID,94.0808,VALID,0,VALID,22.7292,VALID,63,VALID,1.00078,
2009-01-21, 00:35:04,VALID,999.524,VALID,0,VALID,94.0274,VALID,0,VALID,22.7292,VALID,69,VALID,0.881641,
2009-01-21, 00:36:04,VALID,999.541,VALID,0,VALID,93.8748,VALID,0,VALID,22.6884,VALID,69,VALID,1.12422,
2009-01-21, 00:37:04,VALID,999.527,VALID,0,VALID,93.913,VALID,0,VALID,22.7079,VALID,70,VALID,1.07617,
2009-01-21, 00:38:04,VALID,999.531,VALID,0,VALID,93.9511,VALID,0,VALID,22.7292,VALID,65,VALID,1.14102,
2009-01-21, 00:39:04,VALID,999.514,VALID,0,VALID,93.9511,VALID,0,VALID,22.6884,VALID,62,VALID,1.20508,
2009-01-21, 00:40:04,VALID,999.523,VALID,0,VALID,93.974,VALID,0,VALID,22.6884,VALID,66,VALID,1.01563,
2009-01-21, 00:41:04,VALID,999.548,VALID,0,VALID,93.9969,VALID,0,VALID,22.6884,VALID,60,VALID,0.906641,
2009-01-21, 00:42:04,VALID,999.513,VALID,0,VALID,93.8748,VALID,0,VALID,22.6884,VALID,55,VALID,0.760547,
2009-01-21, 00:43:04,VALID,999.506,VALID,0,VALID,93.8214,VALID,0,VALID,22.6884,VALID,54,VALID,0.743359,
2009-01-21, 00:44:04,VALID,999.507,VALID,0,VALID,93.768,VALID,0,VALID,22.6884,VALID,48,VALID,1.05313,
2009-01-21, 00:45:04,VALID,999.521,VALID,0,VALID,93.768,VALID,0,VALID,22.6884,VALID,46,VALID,0.904688,
2009-01-21, 00:46:04,VALID,999.528,VALID,0,VALID,93.7146,VALID,0,VALID,22.6901,VALID,39,VALID,0.783203,
2009-01-21, 00:47:04,VALID,999.536,VALID,0,VALID,93.6536,VALID,0,VALID,22.6689,VALID,39,VALID,0.841016,
2009-01-21, 00:48:04,VALID,999.553,VALID,0,VALID,93.6154,VALID,0,VALID,22.6494,VALID,39,VALID,0.598828,
2009-01-21, 00:49:04,VALID,999.533,VALID,0,VALID,93.6383,VALID,0,VALID,22.6706,VALID,39,VALID,0.596484,
2009-01-21, 00:50:04,VALID,999.539,VALID,0,VALID,93.646,VALID,0,VALID,22.6689,VALID,39,VALID,0.33125,
2009-01-21, 00:51:04,VALID,999.542,VALID,0,VALID,93.6154,VALID,0,VALID,22.6494,VALID,39,VALID,0.100391,
2009-01-21, 00:52:04,VALID,999.541,VALID,0,VALID,93.6383,VALID,0,VALID,22.6511,VALID,39,VALID,0,
2009-01-21, 00:53:04,VALID,999.553,VALID,0,VALID,93.6994,VALID,0,VALID,22.6299,VALID,39,VALID,0,
2009-01-21, 00:54:04,VALID,999.527,VALID,0,VALID,93.6154,VALID,0,VALID,22.6299,VALID,32,VALID,0.552734,
2009-01-21, 00:55:04,VALID,999.522,VALID,0,VALID,93.501,VALID,0,VALID,22.6494,VALID,9,VALID,0.700391,
2009-01-21, 00:56:04,VALID,999.521,VALID,0,VALID,93.3331,VALID,0,VALID,22.6494,VALID,9,VALID,0.722656,
2009-01-21, 00:57:04,VALID,999.531,VALID,0,VALID,93.2797,VALID,0,VALID,22.6494,VALID,9,VALID,0.639063,
2009-01-21, 00:58:04,VALID,999.525,VALID,0,VALID,93.3103,VALID,0,VALID,22.6884,VALID,9,VALID,0.662109,
2009-01-21, 00:59:04,VALID,999.528,VALID,0,VALID,93.0203,VALID,0,VALID,22.6901,VALID,9,VALID,0.775781,
2009-01-21, 01:00:04,VALID,999.492,VALID,0,VALID,93.0508,VALID,0,VALID,22.6901,VALID,9,VALID,0.636328,
2009-01-21, 01:01:04,VALID,999.525,VALID,0,VALID,92.9059,VALID,0,VALID,22.6706,VALID,9,VALID,0.930859,
2009-01-21, 01:02:04,VALID,999.496,VALID,0,VALID,92.532,VALID,0,VALID,22.6494,VALID,13,VALID,1.05352,
2009-01-21, 01:03:04,VALID,999.507,VALID,0,VALID,92.1811,VALID,0,VALID,22.6299,VALID,16,VALID,1.03477,
2009-01-21, 01:04:04,VALID,999.505,VALID,0,VALID,92.1887,VALID,0,VALID,22.6901,VALID,20,VALID,0.882422,
2009-01-21, 01:05:04,VALID,999.479,VALID,0,VALID,92.2879,VALID,0,VALID,22.6689,VALID,19,VALID,0.76875,
2009-01-21, 01:06:04,VALID,999.494,VALID,0,VALID,92.4023,VALID,0,VALID,22.6901,VALID,19,VALID,0.836328,
2009-01-21, 01:07:04,VALID,999.509,VALID,0,VALID,92.6465,VALID,0,VALID,22.6884,VALID,19,VALID,0.779688,
2009-01-21, 01:08:04,VALID,999.463,VALID,0,VALID,92.7685,VALID,0,VALID,22.6901,VALID,20,VALID,0.855859,
2009-01-21, 01:09:04,VALID,999.467,VALID,0,VALID,92.616,VALID,0,VALID,22.6299,VALID,25,VALID,0.795313,
2009-01-21, 01:10:04,VALID,999.465,VALID,0,VALID,92.6617,VALID,0,VALID,22.6494,VALID,30,VALID,0.798047,
2009-01-21, 01:11:04,VALID,999.459,VALID,0,VALID,92.677,VALID,0,VALID,22.6706,VALID,44,VALID,0.794922,
2009-01-21, 01:12:04,VALID,999.448,VALID,0,VALID,92.6465,VALID,0,VALID,22.6901,VALID,44,VALID,0.769141,
2009-01-21, 01:13:04,VALID,999.463,VALID,0,VALID,92.7609,VALID,0,VALID,22.6901,VALID,44,VALID,0.619922,
2009-01-21, 01:14:04,VALID,999.479,VALID,0,VALID,92.7762,VALID,0,VALID,22.6689,VALID,42,VALID,0.725,
2009-01-21, 01:15:04,VALID,999.458,VALID,0,VALID,92.8067,VALID,0,VALID,22.7096,VALID,39,VALID,0.501562,
2009-01-21, 01:16:04,VALID,999.466,VALID,0,VALID,92.8525,VALID,0,VALID,22.6884,VALID,39,VALID,0.442187,
2009-01-21, 01:17:04,VALID,999.463,VALID,0,VALID,92.8448,VALID,0,VALID,22.6689,VALID,39,VALID,0.414453,
2009-01-21, 01:18:04,VALID,999.47,VALID,0,VALID,92.7609,VALID,0,VALID,22.6901,VALID,35,VALID,0.474219,
2009-01-21, 01:19:04,VALID,999.461,VALID,0,VALID,92.6236,VALID,0,VALID,22.6901,VALID,6,VALID,0.560938,
2009-01-21, 01:20:04,VALID,999.438,VALID,0,VALID,92.532,VALID,0,VALID,22.6884,VALID,6,VALID,0.565625,
2009-01-21, 01:21:04,VALID,999.448,VALID,0,VALID,92.5626,VALID,0,VALID,22.7292,VALID,6,VALID,0.561328,
2009-01-21, 01:22:04,VALID,999.42,VALID,0,VALID,92.7075,VALID,0,VALID,22.7079,VALID,9,VALID,0.579297,
2009-01-21, 01:23:04,VALID,999.396,VALID,0,VALID,92.677,VALID,0,VALID,22.7096,VALID,27,VALID,0.637891,
2009-01-21, 01:24:04,VALID,999.404,VALID,0,VALID,92.6236,VALID,0,VALID,22.6884,VALID,39,VALID,1.01953,
2009-01-21, 01:25:04,VALID,999.388,VALID,0,VALID,92.4328,VALID,0,VALID,22.6884,VALID,47,VALID,1.0043,
2009-01-21, 01:26:04,VALID,999.353,VALID,0,VALID,92.4328,VALID,0,VALID,22.6884,VALID,47,VALID,0.907422,
2009-01-21, 01:27:04,VALID,999.335,VALID,0,VALID,92.5015,VALID,0,VALID,22.7274,VALID,47,VALID,0.919531,
2009-01-21, 01:28:04,VALID,999.317,VALID,0,VALID,92.6388,VALID,0,VALID,22.7292,VALID,44,VALID,0.927344,
2009-01-21, 01:29:04,VALID,999.303,VALID,0,VALID,92.6236,VALID,0,VALID,22.7292,VALID,36,VALID,0.972656,
2009-01-21, 01:30:04,VALID,999.279,VALID,0,VALID,92.8448,VALID,0,VALID,22.7079,VALID,30,VALID,0.911719,
2009-01-21, 01:31:04,VALID,999.291,VALID,0,VALID,93.1805,VALID,0,VALID,22.7487,VALID,25,VALID,1.01875,
2009-01-21, 01:32:04,VALID,999.299,VALID,0,VALID,93.3408,VALID,0,VALID,22.7079,VALID,25,VALID,1.03242,
2009-01-21, 01:33:04,VALID,999.282,VALID,0,VALID,93.2797,VALID,0,VALID,22.6689,VALID,24,VALID,1.01914,
2009-01-21, 01:34:04,VALID,999.257,VALID,0,VALID,93.2416,VALID,0,VALID,22.6706,VALID,23,VALID,0.953516,
2009-01-21, 01:35:04,VALID,999.225,VALID,0,VALID,93.1805,VALID,0,VALID,22.6494,VALID,27,VALID,1.01328,
2009-01-21, 01:36:04,VALID,999.258,VALID,0,VALID,93.2034,VALID,0,VALID,22.6299,VALID,34,VALID,0.991406,
2009-01-21, 01:37:04,VALID,999.236,VALID,0,VALID,93.0585,VALID,0,VALID,22.6104,VALID,35,VALID,1.02695,
2009-01-21, 01:38:04,VALID,999.218,VALID,0,VALID,92.8296,VALID,0,VALID,22.5909,VALID,38,VALID,0.960938,
2009-01-21, 01:39:04,VALID,999.22,VALID,0,VALID,92.8143,VALID,0,VALID,22.5909,VALID,37,VALID,0.925391,
2009-01-21, 01:40:04,VALID,999.192,VALID,0,VALID,92.7457,VALID,0,VALID,22.5909,VALID,36,VALID,1.05742,
2009-01-21, 01:41:04,VALID,999.196,VALID,0,VALID,92.8983,VALID,0,VALID,22.6121,VALID,35,VALID,0.925391,
2009-01-21, 01:42:04,VALID,999.218,VALID,0,VALID,93.0661,VALID,0,VALID,22.5909,VALID,35,VALID,0.882813,
2009-01-21, 01:43:04,VALID,999.166,VALID,0,VALID,93.1195,VALID,0,VALID,22.6121,VALID,35,VALID,1.03125,
2009-01-21, 01:44:04,VALID,999.185,VALID,0,VALID,92.7991,VALID,0,VALID,22.5519,VALID,35,VALID,1.10156,
2009-01-21, 01:45:04,VALID,999.188,VALID,0,VALID,92.7533,VALID,0,VALID,22.5519,VALID,35,VALID,0.910156,
2009-01-21, 01:46:04,VALID,999.167,VALID,0,VALID,92.6465,VALID,0,VALID,22.5519,VALID,35,VALID,0.908594,
2009-01-21, 01:47:04,VALID,999.194,VALID,0,VALID,92.5397,VALID,0,VALID,22.5731,VALID,35,VALID,0.826172,
2009-01-21, 01:48:04,VALID,999.212,VALID,0,VALID,92.5626,VALID,0,VALID,22.5714,VALID,36,VALID,0.788281,
2009-01-21, 01:49:04,VALID,999.199,VALID,0,VALID,92.3337,VALID,0,VALID,22.5519,VALID,36,VALID,0.627734,
2009-01-21, 01:50:04,VALID,999.197,VALID,0,VALID,92.2955,VALID,0,VALID,22.5714,VALID,36,VALID,0.537891,
2009-01-21, 01:51:04,VALID,999.152,VALID,0,VALID,92.4328,VALID,0,VALID,22.5519,VALID,36,VALID,0.361328,
2009-01-21, 01:52:05,VALID,999.178,VALID,0,VALID,92.5168,VALID,0.112286,VALID,22.5714,VALID,36,VALID,0.403516,
2009-01-21, 01:53:05,VALID,999.152,VALID,0,VALID,92.5626,VALID,0,VALID,22.5536,VALID,36,VALID,0.496094,
2009-01-21, 01:54:05,VALID,999.129,VALID,0,VALID,92.4939,VALID,0,VALID,22.5323,VALID,36,VALID,0.522266,
2009-01-21, 01:55:05,VALID,999.125,VALID,0,VALID,92.616,VALID,0,VALID,22.5128,VALID,36,VALID,0.685547,
2009-01-21, 01:56:05,VALID,999.122,VALID,0,VALID,92.5091,VALID,0,VALID,22.5128,VALID,36,VALID,0.951563,
2009-01-21, 01:57:05,VALID,999.139,VALID,0,VALID,92.532,VALID,0,VALID,22.5145,VALID,36,VALID,1.15625,
2009-01-21, 01:58:05,VALID,999.121,VALID,0,VALID,92.4863,VALID,0.112286,VALID,22.5128,VALID,45,VALID,1.34375,
2009-01-21, 01:59:05,VALID,999.147,VALID,0,VALID,92.5015,VALID,0,VALID,22.5128,VALID,55,VALID,1.33984,
2009-01-21, 02:00:05,VALID,999.149,VALID,0,VALID,92.5549,VALID,0,VALID,22.5341,VALID,62,VALID,1.32461,
2009-01-21, 02:01:05,VALID,999.137,VALID,0,VALID,92.6846,VALID,0,VALID,22.5323,VALID,61,VALID,1.41133,
2009-01-21, 02:02:05,VALID,999.141,VALID,0,VALID,92.6999,VALID,0,VALID,22.5341,VALID,60,VALID,1.25977,
2009-01-21, 02:03:05,VALID,999.129,VALID,0,VALID,93.0356,VALID,0,VALID,22.5519,VALID,60,VALID,1.01016,
2009-01-21, 02:04:05,VALID,999.081,VALID,0,VALID,93.2034,VALID,0,VALID,22.5519,VALID,57,VALID,0.939844,
2009-01-21, 02:05:05,VALID,999.048,VALID,0,VALID,93.1958,VALID,0,VALID,22.5536,VALID,47,VALID,0.941797,
2009-01-21, 02:06:05,VALID,999.006,VALID,0,VALID,93.2721,VALID,0,VALID,22.5323,VALID,46,VALID,0.679688,
2009-01-21, 02:07:05,VALID,999.02,VALID,0,VALID,93.295,VALID,0,VALID,22.5323,VALID,46,VALID,0.483984,
2009-01-21, 02:08:05,VALID,999.001,VALID,0,VALID,93.3331,VALID,0,VALID,22.5323,VALID,46,VALID,0.389062,
2009-01-21, 02:09:05,VALID,998.964,VALID,0,VALID,93.295,VALID,0,VALID,22.4933,VALID,46,VALID,0.119922,
2009-01-21, 02:10:05,VALID,998.983,VALID,0,VALID,93.3103,VALID,0,VALID,22.4738,VALID,46,VALID,0,
2009-01-21, 02:11:05,VALID,998.977,VALID,0,VALID,93.2874,VALID,0,VALID,22.495,VALID,46,VALID,0,
2009-01-21, 02:12:05,VALID,998.997,VALID,0,VALID,93.3179,VALID,0,VALID,22.4543,VALID,46,VALID,0,
2009-01-21, 02:13:05,VALID,999.025,VALID,0,VALID,93.4552,VALID,0,VALID,22.4348,VALID,46,VALID,0.0679687,
2009-01-21, 02:14:05,VALID,999.051,VALID,0,VALID,93.5315,VALID,0,VALID,22.417,VALID,46,VALID,0.308984,
2009-01-21, 02:15:05,VALID,999.03,VALID,0,VALID,93.501,VALID,0,VALID,22.417,VALID,46,VALID,0.446875,
2009-01-21, 02:16:05,VALID,999.057,VALID,0,VALID,93.5773,VALID,0,VALID,22.3958,VALID,46,VALID,0.198047,
2009-01-21, 02:17:05,VALID,999.051,VALID,0,VALID,93.6078,VALID,0,VALID,22.3763,VALID,46,VALID,0.330859,
2009-01-21, 02:18:05,VALID,999.046,VALID,0,VALID,93.6307,VALID,0,VALID,22.3763,VALID,46,VALID,0.417188,
2009-01-21, 02:19:05,VALID,999.032,VALID,0,VALID,93.6231,VALID,0,VALID,22.3763,VALID,46,VALID,0.3375,
2009-01-21, 02:20:05,VALID,999.036,VALID,0,VALID,93.5849,VALID,0,VALID,22.3975,VALID,45,VALID,0.273438,
2009-01-21, 02:21:05,VALID,999.048,VALID,0,VALID,93.5773,VALID,0,VALID,22.3975,VALID,45,VALID,0,
2009-01-21, 02:22:05,VALID,999.045,VALID,0,VALID,93.5544,VALID,0,VALID,22.3763,VALID,45,VALID,0,
2009-01-21, 02:23:05,VALID,999.058,VALID,0,VALID,93.501,VALID,0,VALID,22.3568,VALID,45,VALID,0,
2009-01-21, 02:24:05,VALID,999.055,VALID,0,VALID,93.6231,VALID,0,VALID,22.3373,VALID,45,VALID,0,
2009-01-21, 02:25:05,VALID,999.045,VALID,0,VALID,93.6688,VALID,0,VALID,22.3373,VALID,45,VALID,0,
2009-01-21, 02:26:05,VALID,999.059,VALID,0,VALID,93.6688,VALID,0,VALID,22.3568,VALID,45,VALID,0,
2009-01-21, 02:27:05,VALID,999.034,VALID,0,VALID,93.6841,VALID,0,VALID,22.3373,VALID,45,VALID,0,
2009-01-21, 02:28:05,VALID,999.042,VALID,0,VALID,93.7223,VALID,0,VALID,22.3585,VALID,45,VALID,0,
2009-01-21, 02:29:05,VALID,998.998,VALID,0,VALID,93.7528,VALID,0,VALID,22.3178,VALID,45,VALID,0,
2009-01-21, 02:30:05,VALID,999.034,VALID,0,VALID,93.707,VALID,0,VALID,22.2983,VALID,45,VALID,0,
2009-01-21, 02:31:05,VALID,999.012,VALID,0,VALID,93.7299,VALID,0,VALID,22.2788,VALID,45,VALID,0,
2009-01-21, 02:32:05,VALID,999.016,VALID,0,VALID,93.8825,VALID,0,VALID,22.2592,VALID,45,VALID,0,
2009-01-21, 02:33:05,VALID,998.988,VALID,0,VALID,94.0045,VALID,0,VALID,22.2804,VALID,45,VALID,0.363281,
2009-01-21, 02:34:05,VALID,998.996,VALID,0,VALID,94.1419,VALID,0,VALID,22.2609,VALID,45,VALID,0.482422,
2009-01-21, 02:35:05,VALID,998.994,VALID,0,VALID,94.1266,VALID,0,VALID,22.2821,VALID,40,VALID,0.596875,
2009-01-21, 02:36:05,VALID,998.976,VALID,0,VALID,94.119,VALID,0,VALID,22.2821,VALID,40,VALID,0.720312,
2009-01-21, 02:37:05,VALID,998.956,VALID,0,VALID,94.0274,VALID,0,VALID,22.2592,VALID,40,VALID,0.779688,
2009-01-21, 02:38:05,VALID,998.99,VALID,0,VALID,93.9511,VALID,0.112286,VALID,22.2397,VALID,39,VALID,0.711328,
2009-01-21, 02:39:05,VALID,999.004,VALID,0,VALID,94.0045,VALID,0,VALID,22.2202,VALID,38,VALID,0.721094,
2009-01-21, 02:40:05,VALID,998.985,VALID,0,VALID,94.0961,VALID,0.112286,VALID,22.2007,VALID,38,VALID,0.616016,
2009-01-21, 02:41:05,VALID,998.992,VALID,0,VALID,93.9969,VALID,0,VALID,22.1812,VALID,38,VALID,0.502344,
2009-01-21, 02:42:05,VALID,998.989,VALID,0,VALID,94.0274,VALID,0,VALID,22.1617,VALID,38,VALID,0.49375,
2009-01-21, 02:43:05,VALID,998.975,VALID,0,VALID,94.2792,VALID,0,VALID,22.1617,VALID,38,VALID,0.4125,
2009-01-21, 02:44:05,VALID,998.955,VALID,0,VALID,94.3021,VALID,0,VALID,22.1617,VALID,38,VALID,0.479688,
2009-01-21, 02:45:05,VALID,998.934,VALID,0,VALID,94.4547,VALID,0,VALID,22.1829,VALID,38,VALID,0.603125,
2009-01-21, 02:46:05,VALID,998.912,VALID,0,VALID,94.5539,VALID,0,VALID,22.1812,VALID,30,VALID,0.786328,
2009-01-21, 02:47:05,VALID,998.927,VALID,0,VALID,94.592,VALID,0,VALID,22.2007,VALID,23,VALID,1.02344,
2009-01-21, 02:48:05,VALID,998.919,VALID,0,VALID,94.2411,VALID,0,VALID,22.1829,VALID,18,VALID,0.913281,
2009-01-21, 02:49:05,VALID,998.926,VALID,0,VALID,94.2792,VALID,0,VALID,22.1439,VALID,17,VALID,0.908203,
2009-01-21, 02:50:05,VALID,998.902,VALID,0,VALID,94.3479,VALID,0,VALID,22.1244,VALID,17,VALID,0.914844,
2009-01-21, 02:51:05,VALID,998.927,VALID,0,VALID,94.4852,VALID,0,VALID,22.1456,VALID,19,VALID,1.02656,
2009-01-21, 02:52:05,VALID,998.906,VALID,0,VALID,94.4394,VALID,0,VALID,22.1244,VALID,27,VALID,0.973437,
2009-01-21, 02:53:05,VALID,998.901,VALID,0,VALID,94.3555,VALID,0,VALID,22.0854,VALID,30,VALID,1.07305,
2009-01-21, 02:54:05,VALID,998.913,VALID,0,VALID,94.4089,VALID,0,VALID,22.0854,VALID,30,VALID,0.927344,
2009-01-21, 02:55:05,VALID,998.897,VALID,0,VALID,94.4623,VALID,0,VALID,22.1066,VALID,29,VALID,0.686328,
2009-01-21, 02:56:05,VALID,998.881,VALID,0,VALID,94.6149,VALID,0,VALID,22.0854,VALID,29,VALID,0.546875,
2009-01-21, 02:57:05,VALID,998.893,VALID,0,VALID,94.6149,VALID,0,VALID,22.1261,VALID,29,VALID,0.4375,
2009-01-21, 02:58:05,VALID,998.894,VALID,0,VALID,94.6073,VALID,0,VALID,22.1261,VALID,29,VALID,0.223828,
2009-01-21, 02:59:05,VALID,998.908,VALID,0,VALID,94.5691,VALID,0,VALID,22.1261,VALID,29,VALID,0,
2009-01-21, 03:00:05,VALID,998.874,VALID,0,VALID,94.5691,VALID,0,VALID,22.1066,VALID,29,VALID,0,
2009-01-21, 03:01:05,VALID,998.891,VALID,0,VALID,94.5844,VALID,0,VALID,22.0854,VALID,29,VALID,0,
2009-01-21, 03:02:05,VALID,998.902,VALID,0,VALID,94.5997,VALID,0,VALID,22.1049,VALID,29,VALID,0,
2009-01-21, 03:03:05,VALID,998.868,VALID,0,VALID,94.6454,VALID,0,VALID,22.1049,VALID,27,VALID,0.353516,
2009-01-21, 03:04:05,VALID,998.874,VALID,0,VALID,94.676,VALID,0,VALID,22.1049,VALID,4,VALID,0.482031,
2009-01-21, 03:05:05,VALID,998.874,VALID,0,VALID,94.676,VALID,0,VALID,22.1227,VALID,4,VALID,0.266406,
2009-01-21, 03:06:05,VALID,998.87,VALID,0,VALID,94.6607,VALID,0,VALID,22.1439,VALID,4,VALID,0.178516,
2009-01-21, 03:07:05,VALID,998.857,VALID,0,VALID,94.6836,VALID,0,VALID,22.1634,VALID,4,VALID,0,
2009-01-21, 03:08:05,VALID,998.926,VALID,0,VALID,94.6226,VALID,0,VALID,22.1422,VALID,4,VALID,0,
2009-01-21, 03:09:05,VALID,998.897,VALID,0,VALID,94.5615,VALID,0,VALID,22.1439,VALID,4,VALID,0,
2009-01-21, 03:10:05,VALID,998.955,VALID,0,VALID,94.531,VALID,0,VALID,22.1439,VALID,4,VALID,0,
2009-01-21, 03:11:05,VALID,998.943,VALID,0,VALID,94.5615,VALID,0,VALID,22.1227,VALID,4,VALID,0,
2009-01-21, 03:12:05,VALID,998.961,VALID,0,VALID,94.6378,VALID,0,VALID,22.1439,VALID,4,VALID,0,
2009-01-21, 03:13:05,VALID,998.964,VALID,0,VALID,94.7523,VALID,0,VALID,22.1422,VALID,4,VALID,0.299219,
2009-01-21, 03:14:05,VALID,998.939,VALID,0,VALID,94.7904,VALID,0,VALID,22.1422,VALID,4,VALID,0.376953,
2009-01-21, 03:15:05,VALID,998.939,VALID,0,VALID,94.8209,VALID,0,VALID,22.1812,VALID,4,VALID,0.340625,
2009-01-21, 03:16:05,VALID,998.945,VALID,0,VALID,94.8133,VALID,0,VALID,22.1812,VALID,4,VALID,0.151172,
2009-01-21, 03:17:05,VALID,998.945,VALID,0,VALID,94.8285,VALID,0,VALID,22.1812,VALID,4,VALID,0,
2009-01-21, 03:18:05,VALID,998.952,VALID,0,VALID,94.8438,VALID,0,VALID,22.2219,VALID,4,VALID,0.00546875,
2009-01-21, 03:19:05,VALID,998.969,VALID,0,VALID,94.8438,VALID,0,VALID,22.2202,VALID,4,VALID,0.311328,
2009-01-21, 03:20:05,VALID,998.992,VALID,0,VALID,94.8438,VALID,0,VALID,22.2414,VALID,4,VALID,0.391797,
2009-01-21, 03:21:05,VALID,999.022,VALID,0,VALID,94.8057,VALID,0,VALID,22.2414,VALID,4,VALID,0.376563,
2009-01-21, 03:22:05,VALID,999.016,VALID,0,VALID,94.8285,VALID,0,VALID,22.2592,VALID,4,VALID,0.366797,
2009-01-21, 03:23:05,VALID,999.033,VALID,0,VALID,94.8057,VALID,0,VALID,22.2592,VALID,4,VALID,0.382422,
2009-01-21, 03:24:05,VALID,999.055,VALID,0,VALID,94.7141,VALID,0,VALID,22.2592,VALID,4,VALID,0.312109,
2009-01-21, 03:25:05,VALID,999.054,VALID,0,VALID,94.676,VALID,0,VALID,22.2592,VALID,4,VALID,0.307422,
2009-01-21, 03:26:05,VALID,999.068,VALID,0,VALID,94.592,VALID,0,VALID,22.2592,VALID,4,VALID,0.208594,
2009-01-21, 03:27:05,VALID,999.084,VALID,0,VALID,94.5462,VALID,0,VALID,22.2592,VALID,4,VALID,0,
2009-01-21, 03:28:05,VALID,999.081,VALID,0,VALID,94.5005,VALID,0,VALID,22.2592,VALID,4,VALID,0,
2009-01-21, 03:29:05,VALID,999.116,VALID,0,VALID,94.4623,VALID,0,VALID,22.2397,VALID,4,VALID,0,
2009-01-21, 03:30:05,VALID,999.136,VALID,0,VALID,94.4165,VALID,0,VALID,22.2202,VALID,4,VALID,0,
2009-01-21, 03:31:05,VALID,999.131,VALID,0,VALID,94.4089,VALID,0,VALID,22.2414,VALID,4,VALID,0,
2009-01-21, 03:32:05,VALID,999.169,VALID,0,VALID,94.386,VALID,0,VALID,22.1812,VALID,4,VALID,0,
2009-01-21, 03:33:05,VALID,999.185,VALID,0,VALID,94.4776,VALID,0,VALID,22.1812,VALID,4,VALID,0,
2009-01-21, 03:34:05,VALID,999.211,VALID,0,VALID,94.5386,VALID,0,VALID,22.2024,VALID,4,VALID,0,
2009-01-21, 03:35:05,VALID,999.227,VALID,0,VALID,94.5844,VALID,0,VALID,22.1812,VALID,4,VALID,0,
2009-01-21, 03:36:05,VALID,999.241,VALID,0,VALID,94.6073,VALID,0,VALID,22.2024,VALID,4,VALID,0,
2009-01-21, 03:37:05,VALID,999.256,VALID,0,VALID,94.6988,VALID,0,VALID,22.1617,VALID,4,VALID,0,
2009-01-21, 03:38:05,VALID,999.297,VALID,0,VALID,94.7751,VALID,0,VALID,22.1812,VALID,4,VALID,0,
2009-01-21, 03:39:05,VALID,999.316,VALID,0,VALID,94.7751,VALID,0,VALID,22.1812,VALID,4,VALID,0,
2009-01-21, 03:40:05,VALID,999.348,VALID,0,VALID,94.7751,VALID,0,VALID,22.1812,VALID,4,VALID,0,
2009-01-21, 03:41:05,VALID,999.323,VALID,0,VALID,94.8209,VALID,0,VALID,22.2024,VALID,4,VALID,0,
2009-01-21, 03:42:05,VALID,999.358,VALID,0,VALID,94.8209,VALID,0,VALID,22.1812,VALID,4,VALID,0,
2009-01-21, 03:43:05,VALID,999.37,VALID,0,VALID,94.8362,VALID,0,VALID,22.1812,VALID,4,VALID,0,
2009-01-21, 03:44:05,VALID,999.355,VALID,0,VALID,94.7904,VALID,0,VALID,22.1829,VALID,4,VALID,0,
2009-01-21, 03:45:05,VALID,999.405,VALID,0,VALID,94.8285,VALID,0,VALID,22.1617,VALID,4,VALID,0,
2009-01-21, 03:46:05,VALID,999.437,VALID,0,VALID,94.8743,VALID,0.112286,VALID,22.1617,VALID,4,VALID,0,
2009-01-21, 03:47:05,VALID,999.42,VALID,0,VALID,94.9125,VALID,0.112286,VALID,22.2024,VALID,4,VALID,0,
2009-01-21, 03:48:05,VALID,999.472,VALID,0,VALID,94.9125,VALID,0.112286,VALID,22.1812,VALID,4,VALID,0,
2009-01-21, 03:49:05,VALID,999.451,VALID,0,VALID,94.8896,VALID,0.112286,VALID,22.1634,VALID,4,VALID,0,
2009-01-21, 03:50:05,VALID,999.477,VALID,0,VALID,94.8285,VALID,0,VALID,22.1651,VALID,4,VALID,0,